{"data":{"norad_id":69722,"epoch":"2026-09-19T19:54:27.480672Z","epoch_age_seconds":79417,"freshness":"FRESH","line1":"1 69722U 26147U   26262.82948473  .00017176  00000+0  53274-3 0  9994","line2":"2 69722  97.2837 299.2401 0001100 242.8071 117.3059 15.33470019 14135","mean_motion":15.33470019,"eccentricity":0.00011,"inclination_deg":97.2837,"raan_deg":299.2401,"arg_perigee_deg":242.8071,"mean_anomaly_deg":117.3059,"bstar":0.00053274,"rev_number":1413,"period_min":93.904672550367,"perigee_km":464.71593991755,"apogee_km":466.2215331796,"semimajor_km":6843.6057365486,"source":"CELESTRAK","updated_at":"2026-09-20T09:00:44.284515Z"}}